カタログに戻る

STARLINK-6163

運用中通信VLEO
NORAD 57128·PAYLOAD·🇺🇸 United States

打ち上げ Jun 23, 2023 から Cape Canaveral Space Force Station

Loading…

次のパス (今後24時間)

TLE

最新Source: CelesTrak SupGP

元期: Sep 15, 2026, 01:29 UTC

1 57128C 23090AD  26258.06229167  .00022431  00000+0  81241-3 0  2581
2 57128  43.0018 291.7808 0001750 267.8239 243.3716 15.27568820    17

AllMySatでSTARLINK-6163をリアルタイム追跡

Download on the App Store